CZ-6A DEB, 54967

Orbit data source: Space-Track

CZ-6A DEB, 54967 is space debris in SSO originally from a launch on Fri, 11 Nov 2022 UTC launched from the Taiyaun Space Center, China (TSC). Debris objects in space refer to the collection of defunct objects orbiting the Earth. Examples of debris include non-operational satellites, rocket bodies, and fragments generated from explosions, collisions, or faulty payload assembly.

Loading next visibility...
Identifier
54967, 2022-151TG
Orbit
SSO
Country
Flag of CNCN / PRC
Related business
Manufacturer
SAST
Mission
Spacecraft
Bus & Motor
Unknown
Mass
Unknown
Launch date (UTC)
2022-11-11 (4 years ago)
Launch vehicle
Unknown
Launch site
Taiyaun Space Center, China (TSC)
Object type
Payload
Rocket body
Debris
Shape & HBR
Unknown shape, 0.1 m
Radar Cross Section
Small (<0.1 m²)

Expand to show TLE details & history
Last TLE update: 1 day ago

TLE from 1 day ago
0 CZ-6A DEB
1 54967U 22151TG  26235.58407774  .00000117  00000-0  20132-3 0  9992
2 54967  99.0484 101.4534 0423858 269.8846  85.3722 13.31113795183461
Epoch: 2026-08-23T14:01Z
TLE epoch observation values (Epoch: 2026-08-23T14:01:04.316Z)
Latitude
-0.00003°
Longitude
-80.69262°
Altitude
1,133.106 km
Speed
7.292 km/s
True Right ascension
06h 45m 48s
True Declination
0° 00' 00"
Sunlit
Object was in daylight at epoch
Visualization orbit readout
Latitude
Unknown
Longitude
Unknown
Altitude
Unknown
Speed
Unknown
Apparent Right ascension
Unknown
Apparent Declination
Unknown
Sunlit
N/A
Visualization observer readout
Local Sidereal Time
06:28:09
Azimuth
Unknown
Elevation
Unknown
Doppler factor
Unknown
Orbital elements
Apogee altitude
1,458.508 km
Perigee altitude
821.196 km
Semi-major axis
7,517.989 km
Eccentricity
0.04239
Inclination
99.0484°
RAAN
101.4534°
Arg. of periapsis
269.8846°
True anomaly
90.22838°
Mean anomaly
85.3722°
Eccentric anomaly
87.79894°
Mean motion
3.32959 °/min
Orbital period
108.12 mins
BSTAR
0.00020132
Loading maneuver chart data...
Computing Atmospheric mass density...
Loading historical data...
Loading historical data...
Loading historical data...
Loading historical data...
Loading historical data...
Loading historical data...
Loading historical data...

Documentation

Showing up to 5 results
|